Tracking 30995 objects as of 5-Jul-2025
HD Live streaming from Space Station
objects crossing your sky now

STARLINK-11281

Track STARLINK-11281 now!
10-day predictions
STARLINK-11281 is classified as:


NORAD ID: 60996
Int'l Code: 2024-158G
Perigee: 366.2 km
Apogee: 367.6 km
Inclination: 53.2 °
Period: 91.7 minutes
Semi major axis: 6737 km
RCS: Unknown
Launch date: September 5, 2024
Source: United States (US)
Launch site: AIR FORCE EASTERN TEST RANGE (AFETR)
Your satellite tracking list
STARLINK-1713
Track 1 satellite(s)




NASA's NSSDC Master Catalog

Two Line Element Set (TLE):
1 60996U 24158G   25186.02576235 -.00003148  00000-0 -21159-4 0  9992
2 60996  53.1587  62.3476 0001043  73.2877 286.8255 15.69689004 48704
Source of the keplerian elements: AFSPC